Theta_e
343 344 346 349 349 349 348 348 346 344 344 344 343 342 341 341 340 340 341 344 344 345 347 347 345 345 345 345 345 345 345 344 344 343 342 342 341 339 341 341 340 340 341 342 343 345 344 344 343 343 344 345 346 346 346 348 348 348 348 348 347 347 346 346 346 346 346 346 346 346 345 345 345 345 345 346 345 345 344 343 343 340 340 343 345
342 345 346 347 350 348 348 347 346 344 343 342 341 341 340 340 338 338 339 340 341 342 344 346 346 344 343 343 344 344 344 343 343 343 343 340 340 340 339 340 342 342 342 342 341 341 343 343 343 343 344 345 345 344 345 347 347 347 346 346 346 346 347 347 346 346 345 344 345 344 344 344 345 345 346 346 345 344 343 342 342 339 339 344 343
344 345 346 347 349 348 348 347 346 345 343 341 340 340 340 340 340 341 342 342 341 341 342 344 345 344 343 343 343 343 342 341 341 342 342 341 339 338 338 340 340 341 341 341 341 341 340 340 341 342 342 343 343 344 345 346 346 345 345 345 345 344 344 345 346 346 345 344 343 343 342 344 343 343 345 346 345 344 342 342 342 341 338 343 342
342 344 346 347 347 348 348 346 345 345 344 342 341 340 340 339 338 338 344 344 345 345 345 345 344 342 342 342 340 340 339 338 338 343 342 342 341 341 339 338 338 340 341 341 340 340 339 339 339 339 340 340 341 343 343 343 344 344 344 344 344 344 344 345 345 345 345 343 342 341 339 337 340 342 343 344 345 343 340 341 341 341 341 342 342
342 345 346 346 346 347 347 345 345 344 344 344 343 341 341 339 339 340 343 344 346 346 345 345 345 343 341 340 340 339 339 338 342 341 343 342 342 342 342 341 339 339 339 340 340 339 340 339 339 338 338 338 339 340 341 342 344 344 344 344 344 344 345 344 347 344 343 342 341 340 337 337 337 342 343 344 344 342 341 340 341 342 341 341 340
342 344 345 345 345 345 346 346 346 344 344 344 343 342 340 339 339 339 339 341 345 345 347 346 345 342 341 341 340 339 339 339 339 342 342 341 342 343 343 343 341 338 340 340 340 340 340 339 339 339 339 339 339 339 339 341 343 343 343 343 344 343 344 345 346 342 341 341 339 337 336 336 337 337 343 342 343 340 341 342 341 340 341 341 340
342 343 344 345 345 345 345 346 346 345 343 342 342 341 340 340 340 340 341 345 347 346 346 347 344 343 342 340 338 338 338 339 342 342 344 343 343 342 343 343 340 339 340 341 341 341 341 341 340 340 339 339 339 339 339 340 342 343 343 342 342 343 343 344 342 341 339 337 335 335 335 336 336 336 342 341 341 342 341 342 341 341 341 340 340
340 342 344 345 345 345 345 346 345 345 344 343 342 342 341 340 340 340 341 343 344 346 346 346 344 343 341 341 339 339 338 342 343 343 343 341 340 340 341 340 339 338 339 339 339 341 340 340 339 339 339 339 339 339 339 339 342 342 342 342 342 342 342 344 341 339 339 335 334 334 334 334 334 336 340 341 341 343 341 341 340 340 340 339 337
340 342 345 345 344 344 345 345 345 345 344 344 343 342 341 340 340 340 340 342 345 346 346 346 344 342 340 340 339 339 335 336 341 341 339 339 340 340 341 341 340 339 338 337 337 338 338 337 337 337 339 339 339 339 339 339 342 342 341 341 341 341 343 342 339 337 335 333 333 333 333 334 335 336 340 342 341 340 339 338 339 340 339 337 336
340 343 345 345 345 342 345 345 345 345 344 343 343 342 343 341 340 340 339 344 345 345 345 345 343 342 341 341 339 337 335 335 336 337 338 339 339 341 341 340 340 340 339 340 340 340 339 339 337 338 338 340 340 340 339 340 341 341 340 341 340 341 342 340 338 335 333 332 333 334 334 336 333 335 338 340 339 339 337 335 337 336 336 336 336
340 343 345 345 344 343 346 346 346 345 344 343 342 343 343 342 341 341 339 340 346 346 345 345 343 341 341 340 338 337 337 337 337 338 338 338 339 340 338 337 338 339 341 342 341 341 340 339 339 340 340 339 339 339 339 339 340 340 340 340 340 340 342 338 334 332 332 332 332 332 336 337 331 333 338 338 338 337 337 337 336 335 335 334 334
340 344 346 344 344 342 346 346 345 345 345 344 344 343 343 343 342 342 340 340 345 345 345 344 342 341 340 339 338 337 335 335 336 338 339 339 340 338 337 337 337 338 338 339 339 339 340 340 339 339 338 339 338 338 339 339 340 340 340 340 340 339 338 336 332 331 331 331 330 330 330 330 331 333 336 338 337 336 335 335 334 335 334 333 333
342 345 345 344 344 341 345 346 345 345 345 344 344 342 343 343 343 343 342 341 341 342 342 342 342 341 339 338 337 336 336 336 335 335 336 336 338 337 337 338 338 337 337 336 337 338 339 339 339 339 338 338 338 338 338 338 339 339 339 339 338 339 335 334 332 331 330 330 330 330 329 329 330 335 335 336 335 334 334 334 333 333 333 332 332
343 344 344 344 344 344 341 343 344 345 346 345 344 343 343 344 343 343 342 341 340 339 340 340 341 341 339 338 337 335 336 336 335 336 335 336 336 337 337 337 337 338 337 337 337 336 337 337 338 338 338 338 337 337 337 338 338 338 337 337 338 336 333 332 333 330 330 329 329 329 328 329 330 334 333 333 334 333 333 332 332 332 332 331 330
343 344 343 344 344 343 342 339 343 344 344 345 344 343 343 344 343 343 342 341 341 340 340 340 340 339 338 336 336 335 336 335 335 334 336 337 337 337 337 336 337 337 337 337 336 336 336 337 337 338 337 337 337 337 337 337 337 337 337 337 336 333 330 332 332 330 329 329 327 327 327 328 333 333 332 332 332 332 331 330 330 330 330 329 329
344 344 343 343 343 343 342 342 338 339 342 343 343 343 344 343 342 342 342 342 342 341 340 340 339 338 337 336 335 335 336 338 336 335 337 338 336 337 337 337 336 337 337 336 337 336 336 336 336 337 337 337 336 336 336 336 336 336 336 335 333 331 328 327 329 327 327 327 327 326 325 328 332 331 331 331 331 330 330 330 328 328 329 328 327
341 342 342 342 343 343 343 343 338 334 335 337 339 340 342 344 344 342 343 342 342 341 340 339 339 337 337 336 336 339 338 340 341 340 339 339 340 339 339 337 337 337 337 337 336 335 336 336 337 336 336 336 336 336 336 336 335 335 335 333 332 330 327 325 326 324 323 325 326 324 324 325 330 330 330 330 330 329 329 329 329 327 326 326 326
340 340 342 342 342 342 343 343 340 341 340 335 333 338 341 343 343 343 343 343 343 341 341 341 341 341 341 339 338 338 337 337 338 339 338 339 338 338 339 337 337 337 336 335 336 335 334 335 336 336 336 336 335 336 335 335 334 334 332 332 331 329 326 326 323 323 324 325 323 324 324 330 329 329 329 329 329 328 327 327 327 326 326 326 325
338 338 340 341 342 342 343 343 342 342 342 340 339 337 335 340 341 341 342 342 342 341 341 338 339 339 338 336 335 333 331 332 333 335 335 335 335 334 338 338 337 336 335 334 334 334 335 335 335 335 335 335 335 335 334 334 333 333 332 330 327 323 323 326 323 325 322 321 321 322 323 331 328 328 328 328 327 328 327 326 326 326 324 324 324
336 336 337 340 342 341 342 342 342 342 341 340 340 339 333 333 337 339 339 340 339 338 337 334 332 332 332 332 329 328 327 326 326 329 331 333 333 331 334 336 336 335 334 334 334 333 333 333 334 335 334 334 334 333 332 332 331 331 330 328 325 320 327 324 324 323 322 321 322 322 327 332 327 328 328 327 326 326 325 325 325 324 324 324 323
337 336 334 337 340 341 341 342 342 341 342 341 340 340 336 330 332 331 333 336 336 334 331 325 323 322 325 324 326 329 328 327 327 329 325 327 325 327 332 336 335 334 333 333 332 332 333 333 333 333 333 332 329 328 328 330 330 330 328 326 320 325 326 325 325 324 322 321 322 323 329 331 328 328 327 326 326 325 326 325 324 324 323 323 322
332 332 334 336 337 340 340 341 341 341 341 342 342 342 337 336 338 336 335 331 327 326 329 331 333 328 324 326 329 329 328 326 327 332 328 328 326 325 330 334 335 334 334 332 332 331 331 332 331 331 332 330 326 323 322 323 324 326 324 319 322 326 324 324 325 324 322 322 322 325 332 329 329 328 327 325 325 325 324 324 324 323 322 321 320
330 331 332 333 335 338 339 339 340 340 341 341 342 341 339 339 339 339 338 332 333 333 334 333 332 331 329 329 328 330 328 326 327 330 330 323 326 325 329 331 332 332 334 333 331 331 331 331 330 330 330 330 322 323 323 321 320 320 318 320 322 324 325 325 324 325 323 321 322 327 330 327 328 327 326 326 324 324 324 323 323 322 321 320 320
330 330 330 333 334 335 337 339 340 340 340 340 341 340 339 339 339 338 336 336 336 335 333 333 332 332 331 329 328 328 331 328 328 329 329 327 324 323 325 327 328 327 328 329 331 332 331 330 328 327 326 322 322 324 325 324 323 323 323 323 324 323 323 324 323 323 324 324 323 326 330 329 328 327 327 325 324 324 324 323 322 321 321 319 319
329 330 330 331 332 336 336 337 339 339 339 339 339 339 340 338 339 338 337 335 336 334 334 333 332 333 331 331 330 328 329 328 328 328 328 328 326 326 326 326 326 324 324 325 325 325 324 322 320 319 320 323 323 321 321 322 324 324 323 324 322 322 323 323 324 323 322 322 321 324 326 331 327 326 325 324 324 324 322 322 322 320 320 320 319
329 328 329 330 331 335 336 336 338 338 339 337 338 338 340 338 338 339 338 336 336 333 332 332 332 333 332 331 331 327 325 329 326 326 327 328 327 326 326 326 326 326 325 326 325 324 323 323 321 320 321 323 321 322 321 320 320 321 320 320 321 321 322 323 324 323 323 322 320 322 326 330 328 327 325 324 324 323 322 321 321 321 320 319 319
328 328 330 330 331 332 335 336 337 337 338 338 337 337 337 337 337 338 338 336 335 333 331 331 331 332 332 331 329 327 324 324 324 324 325 327 327 326 326 326 326 326 324 324 324 324 323 321 321 322 322 321 321 320 321 321 321 320 320 321 321 321 320 322 324 323 322 322 319 320 325 330 328 327 326 324 323 323 322 321 321 321 320 319 319
329 329 330 330 330 331 332 334 335 336 337 338 337 336 336 337 337 335 337 334 335 335 332 330 333 332 331 330 327 328 325 324 325 325 324 327 327 327 327 326 325 324 324 324 324 322 322 321 321 321 321 321 321 321 320 321 320 320 320 320 321 321 320 320 321 324 324 323 321 318 322 325 327 329 327 326 325 324 322 322 322 322 321 320 319
329 329 330 330 331 332 332 332 333 334 336 337 335 335 336 336 336 336 335 333 336 336 334 333 332 330 331 330 328 327 327 326 325 326 327 325 326 327 326 325 326 324 325 323 324 323 322 320 320 319 319 319 319 319 320 320 320 320 320 319 320 320 319 320 321 321 322 323 321 319 321 323 326 329 327 326 327 326 325 324 323 322 322 321 320
330 331 330 330 332 333 332 332 333 334 334 335 334 334 335 334 335 335 336 334 334 336 335 332 332 331 329 329 329 328 326 326 325 324 325 324 325 326 325 324 324 324 324 323 324 323 321 319 319 319 320 320 319 321 320 319 320 319 319 318 319 319 318 318 319 320 322 321 322 320 318 321 325 327 328 327 327 327 325 325 325 323 323 323 323
330 330 331 331 331 333 332 332 333 332 334 334 334 334 335 335 334 335 336 335 335 335 334 333 332 331 330 331 330 328 327 327 326 326 325 325 324 325 324 323 323 323 324 323 322 323 321 319 320 319 319 319 319 319 319 319 319 320 318 318 318 318 319 319 319 318 319 321 321 320 319 318 321 324 328 329 328 326 327 326 326 324 324 324 323
329 330 330 332 331 333 334 333 334 334 333 334 334 334 335 335 335 335 335 336 335 334 334 334 330 332 333 333 331 329 327 327 327 327 325 324 324 324 324 323 323 323 323 322 321 322 320 319 319 319 318 319 319 318 318 317 316 318 318 318 318 318 317 317 317 318 319 318 319 320 319 318 317 320 322 327 327 327 327 327 327 326 325 324 324
329 331 331 331 331 332 334 334 335 334 333 333 334 334 335 336 336 336 335 337 336 335 334 334 334 334 334 334 332 332 330 328 326 328 327 326 325 325 323 323 324 323 322 321 321 320 320 319 318 319 319 318 317 316 317 316 315 315 317 318 319 318 319 316 316 317 318 318 319 317 318 318 317 315 317 320 325 327 327 326 326 326 326 325 325
328 328 330 331 332 333 333 334 334 334 334 335 334 335 335 335 335 337 335 336 335 334 333 334 334 333 332 331 332 332 331 330 327 327 329 328 328 326 323 322 323 322 321 320 320 319 317 317 315 316 315 314 314 314 314 314 314 314 314 315 316 317 316 318 315 315 316 316 318 319 317 318 317 316 315 316 319 321 327 327 326 326 326 326 325
327 327 329 330 331 332 333 333 332 334 334 335 334 335 335 335 335 336 335 334 335 334 333 335 334 334 333 331 330 331 332 331 329 327 329 328 328 326 325 323 324 322 320 319 319 318 319 318 316 316 316 314 314 313 314 314 313 315 315 314 314 315 315 315 314 314 314 313 314 314 315 315 316 317 316 315 312 315 321 327 328 327 326 326 327
328 328 328 331 331 332 332 331 331 331 333 334 334 334 334 334 334 331 335 335 333 334 334 335 335 334 333 332 332 331 330 331 331 330 329 329 328 326 325 325 324 323 321 318 319 319 318 318 318 318 315 313 314 314 315 314 315 315 314 314 313 314 315 313 313 312 311 312 312 311 311 311 312 313 315 316 316 314 315 319 325 327 327 327 327
328 328 328 329 330 331 330 331 330 331 332 333 334 333 333 332 332 332 334 334 334 334 333 334 335 334 333 333 333 332 330 331 331 331 329 329 328 328 328 328 327 324 320 317 316 317 316 318 318 317 316 313 313 313 314 315 314 314 314 313 311 309 309 310 310 310 311 310 311 311 311 310 310 310 312 313 316 316 314 315 319 321 321 326 328
327 328 329 330 330 330 330 330 330 331 331 333 333 333 332 331 330 330 330 332 334 334 334 334 334 333 333 333 332 332 331 331 331 330 329 329 328 328 328 328 326 323 319 317 316 316 317 317 316 316 316 315 313 313 313 313 313 314 311 310 308 306 306 307 307 307 307 307 309 310 310 309 309 310 311 312 313 314 316 315 315 315 314 318 324
328 329 329 330 330 330 329 329 330 331 331 331 331 331 331 331 330 328 328 330 331 332 332 332 333 333 333 333 333 332 331 332 331 329 328 327 326 326 327 326 326 322 321 319 318 317 316 316 316 315 315 315 313 313 314 315 312 308 307 307 306 304 304 304 303 303 303 305 305 308 309 308 308 308 309 311 312 312 313 314 314 314 315 314 321
328 329 328 329 329 329 330 329 329 331 331 331 330 329 328 327 326 325 324 324 327 327 331 331 331 331 332 333 333 332 331 331 332 332 331 330 328 328 328 326 325 325 323 321 320 318 316 314 314 314 312 313 314 315 313 309 306 306 306 306 304 304 304 304 304 303 304 304 305 304 305 306 306 307 307 308 310 311 312 311 311 313 314 314 315
325 327 327 327 329 329 328 328 329 329 329 329 329 328 326 324 323 324 324 325 326 326 327 327 328 328 330 332 333 333 332 331 331 332 331 328 329 330 329 327 325 324 323 322 321 319 316 315 313 313 314 314 313 313 311 309 307 306 307 306 305 305 304 304 304 304 304 304 304 304 304 304 305 305 307 308 308 309 309 309 309 310 311 313 313
321 323 324 326 327 328 327 328 329 329 329 329 328 328 327 326 325 325 324 325 326 326 325 327 328 329 328 329 331 333 333 332 329 330 330 330 328 326 326 327 326 325 325 324 321 317 318 316 315 313 313 314 314 313 311 311 307 307 307 307 306 306 305 304 303 304 304 303 303 303 303 304 304 305 307 306 306 306 306 306 307 308 309 310 312
319 320 322 323 324 326 326 327 328 328 327 327 327 327 326 326 326 324 325 322 322 325 326 325 327 328 330 331 331 330 331 331 330 329 330 331 330 328 326 325 327 326 324 323 320 320 320 317 316 315 312 313 313 313 311 312 309 307 306 303 303 304 306 301 303 303 304 304 303 302 303 303 304 305 305 304 304 304 305 305 305 306 307 308 309
315 316 319 321 323 323 324 326 326 326 326 325 324 325 325 324 324 324 325 324 322 320 322 323 323 324 324 327 328 328 330 331 331 330 331 331 329 327 325 325 326 323 323 323 321 320 317 316 315 315 314 311 310 311 312 310 311 307 303 303 300 300 301 305 303 304 304 304 303 303 303 303 303 304 303 303 304 304 304 304 304 305 306 307 307
307 314 316 319 322 322 323 325 324 325 325 323 324 324 324 322 322 320 320 319 319 318 318 318 321 321 321 322 323 324 326 325 327 331 329 329 329 328 328 328 327 326 323 321 320 319 319 317 315 314 313 313 311 310 310 310 310 312 310 301 299 298 300 305 304 307 305 303 303 303 302 302 302 303 302 303 303 304 304 304 305 305 306 306 306
304 307 311 316 317 320 321 322 322 323 324 323 323 323 322 322 320 319 316 314 313 313 317 315 315 316 317 318 320 322 324 325 326 326 328 327 329 330 329 328 327 326 324 324 322 320 319 318 316 315 314 314 314 313 310 306 308 309 311 312 311 308 305 303 305 303 306 305 303 303 303 302 302 302 302 302 302 303 303 304 305 305 306 306 306
304 305 307 310 313 317 319 321 321 321 322 321 322 321 320 320 320 319 317 317 315 314 314 315 316 316 318 318 319 321 324 325 323 324 324 326 329 329 328 326 325 325 322 324 323 322 321 320 318 316 315 314 313 312 312 310 304 305 307 308 309 308 308 305 304 305 302 304 306 303 303 303 302 302 302 303 303 303 303 303 303 304 305 305 305
303 305 305 306 309 312 316 318 318 319 319 320 321 321 320 318 318 317 317 316 316 314 317 316 315 316 318 317 318 318 320 323 323 323 324 324 325 326 325 325 325 326 323 322 322 322 321 321 320 319 316 315 314 312 312 312 306 306 305 305 306 306 307 307 307 304 302 300 302 306 305 303 303 303 303 303 304 304 304 303 303 303 304 304 305
304 305 305 304 306 309 313 314 315 316 318 318 319 318 318 318 318 317 314 313 316 315 314 314 317 317 315 315 315 316 318 321 322 321 319 319 317 320 323 324 324 324 320 322 322 321 320 320 318 317 316 314 314 314 313 312 310 309 304 303 304 304 305 305 305 305 301 300 301 302 304 306 306 306 304 304 305 305 304 304 304 303 303 303 304
304 305 304 305 307 309 312 312 312 314 317 316 318 317 315 317 317 315 314 312 311 312 312 311 311 312 310 313 316 318 318 319 320 320 319 317 318 320 321 321 321 322 319 321 321 321 320 320 319 317 316 315 315 313 313 313 312 312 310 306 302 302 302 302 302 302 302 303 300 301 303 303 302 305 306 305 304 304 303 303 303 303 303 303 303
305 306 306 306 306 309 310 310 312 314 315 315 316 315 313 315 315 313 314 313 312 311 311 311 310 310 311 313 315 316 317 317 319 320 320 321 321 319 319 320 321 317 317 318 318 318 319 319 318 318 316 314 313 313 311 311 311 311 311 310 308 306 304 303 303 302 302 298 298 299 302 304 303 303 306 307 306 304 303 303 303 303 303 303 303
Wind_Speed
7 9 7 9 10 11 12 13 12 12 12 12 12 12 11 11 11 10 11 14 13 13 15 14 15 16 15 15 17 17 17 16 16 17 18 17 16 15 17 16 16 18 18 17 16 18 18 17 17 17 17 17 18 18 18 19 19 19 19 18 18 18 19 19 19 18 18 19 20 19 18 17 18 18 19 19 19 18 16 17 14 11 9 14 19
10 8 7 7 10 12 12 13 13 13 13 13 12 11 11 11 10 10 9 11 10 11 11 13 14 14 14 14 16 16 16 15 16 17 17 17 16 16 17 18 19 18 17 16 17 17 17 17 18 17 17 18 18 18 18 18 18 17 17 18 18 17 16 16 17 17 18 18 19 19 19 18 18 18 19 20 20 19 16 17 16 9 8 19 19
10 8 7 7 11 11 12 13 13 13 14 13 12 10 10 9 9 9 11 12 11 11 10 11 14 13 13 14 15 15 14 14 14 16 17 17 16 16 15 18 17 17 19 18 17 17 17 17 16 16 16 17 18 17 18 17 17 17 17 17 17 16 16 14 12 13 16 17 18 18 18 19 19 19 20 20 20 19 17 18 17 15 12 20 18
11 8 7 8 11 10 12 13 13 13 13 12 12 11 10 10 10 11 12 12 12 12 11 12 14 13 14 14 14 14 13 12 13 17 15 16 16 15 16 17 16 18 17 17 18 17 17 16 16 16 16 16 16 17 17 16 16 16 16 16 15 14 13 12 9 7 9 16 16 13 9 7 10 18 18 19 21 19 17 18 19 19 20 18 21
12 9 8 8 8 9 13 13 13 13 12 12 12 12 11 9 8 9 11 10 11 12 11 12 13 13 14 13 13 13 13 13 15 14 15 16 17 17 16 16 16 17 16 17 17 17 17 17 17 17 16 15 15 16 16 15 16 16 16 15 15 15 14 13 11 14 15 16 13 10 7 8 8 15 19 20 19 17 17 19 19 20 19 20 20
10 10 9 9 8 8 12 12 13 13 12 12 12 12 11 9 9 10 10 12 12 12 13 12 12 13 13 14 14 12 12 14 14 15 15 16 16 16 16 16 17 15 16 16 16 16 16 17 17 16 16 16 15 15 16 15 15 15 15 15 15 15 15 12 10 14 13 13 12 7 8 7 7 8 18 18 19 16 18 19 19 18 19 20 19
11 9 9 9 7 8 11 13 13 13 13 12 12 12 11 10 9 8 11 13 13 12 11 12 13 13 14 14 13 12 14 14 15 15 16 15 16 16 16 16 16 14 14 15 16 16 16 16 16 16 16 15 15 15 15 15 14 14 14 14 14 14 13 11 15 13 12 9 6 7 7 8 8 6 17 16 19 17 19 19 18 18 19 18 18
8 7 9 9 7 9 12 13 13 13 13 12 11 11 10 9 10 10 10 11 12 13 13 11 12 13 13 13 12 13 14 15 15 14 14 14 14 14 15 15 15 14 15 15 15 15 16 16 16 16 16 16 15 14 15 14 14 14 14 14 14 12 11 8 13 13 13 8 6 7 7 8 7 3 13 16 17 20 19 19 18 18 18 17 13
7 9 10 9 8 12 12 12 13 13 13 12 11 10 10 10 9 8 9 12 12 12 11 12 11 14 13 12 12 13 12 11 14 13 13 14 13 15 15 15 15 14 14 15 15 15 15 15 14 15 15 15 15 15 14 14 13 13 14 14 14 13 10 8 12 12 9 6 7 7 7 6 6 7 14 18 18 18 18 15 16 18 18 15 17
8 9 10 8 8 12 12 12 13 13 13 13 11 11 10 9 8 9 9 12 12 13 12 12 13 13 12 12 13 12 11 12 12 12 13 13 13 15 15 15 14 14 14 14 15 15 14 14 14 14 15 16 15 14 14 13 13 13 13 14 13 13 11 8 10 9 8 8 9 8 8 10 7 6 14 17 18 18 17 14 11 10 11 16 18
9 9 9 9 9 12 13 13 11 11 13 12 11 11 10 10 9 9 9 10 15 14 13 11 13 13 12 12 12 11 12 12 12 12 12 12 14 14 15 14 13 14 14 15 15 14 14 14 14 14 14 14 14 14 13 12 12 12 12 12 14 15 12 17 13 8 8 7 6 6 9 10 5 5 13 15 16 14 9 12 13 14 14 12 12
10 10 8 8 9 12 12 11 11 12 12 12 11 11 10 9 9 8 7 10 13 13 13 12 13 13 12 12 12 11 11 11 11 13 14 14 14 14 14 13 13 13 13 13 13 14 14 14 14 14 13 13 13 13 13 11 10 11 12 12 13 14 13 15 9 6 6 8 9 8 7 6 5 7 14 13 13 13 11 9 10 13 11 10 12
11 11 9 8 6 10 11 11 10 11 11 11 11 11 10 9 8 8 8 9 9 11 12 12 12 12 12 11 10 9 10 10 10 10 10 10 11 12 12 12 13 12 12 12 12 12 13 13 13 13 13 13 13 12 12 10 10 11 12 12 13 12 11 12 7 6 5 5 5 7 8 6 5 12 12 11 11 10 12 11 10 8 10 11 10
12 10 9 8 5 9 10 10 9 9 10 10 11 11 10 9 8 8 9 9 9 9 10 11 11 11 10 9 9 8 10 10 9 11 11 10 11 11 11 12 12 12 12 12 12 11 12 12 12 12 12 12 12 12 11 9 10 10 11 12 11 11 10 8 6 4 5 8 8 7 5 3 4 12 12 11 10 11 12 11 10 12 13 12 12
11 11 9 8 6 5 9 9 8 8 8 9 9 10 10 9 9 8 8 8 8 8 9 10 10 10 10 10 9 8 10 10 9 8 9 10 11 10 11 12 12 12 11 11 12 11 11 11 11 11 11 11 11 11 10 9 10 10 10 9 8 10 10 4 4 4 6 6 6 8 7 5 10 11 11 11 10 10 11 10 9 10 10 10 10
10 10 10 9 7 6 5 6 8 8 8 8 8 8 9 9 9 9 8 8 9 9 9 9 9 9 10 9 9 8 10 11 11 8 7 8 11 12 12 11 11 11 11 11 11 11 11 11 11 11 11 11 11 10 9 9 9 9 8 8 9 9 10 4 4 3 3 5 6 6 6 4 11 11 11 11 10 10 10 10 10 9 9 10 10
7 9 10 9 10 7 6 5 5 8 8 8 7 7 8 8 8 9 7 8 8 9 9 9 9 9 9 10 8 7 11 10 10 10 10 11 9 9 8 11 11 11 12 12 11 11 11 11 10 10 10 10 10 10 9 9 8 8 8 8 8 8 10 7 4 4 7 8 6 5 5 3 9 11 11 10 10 10 10 10 10 9 8 8 9
5 5 8 9 9 8 8 6 6 6 5 6 7 8 7 7 7 7 7 7 7 8 8 8 8 8 7 8 7 8 10 10 9 9 10 10 9 7 8 11 11 12 11 11 11 10 10 10 10 10 10 10 9 8 8 8 7 7 6 6 7 9 8 6 4 3 6 7 6 5 5 5 10 10 10 9 9 9 8 9 9 9 9 9 9
5 3 5 8 8 8 8 7 7 6 6 5 4 6 9 8 8 7 6 7 7 7 8 8 8 8 7 8 8 9 9 9 8 8 8 8 10 11 11 10 11 11 11 10 10 10 10 10 10 10 9 9 8 8 8 7 6 5 4 4 7 8 10 4 3 6 6 6 5 5 3 6 9 9 9 9 9 8 8 8 8 8 8 8 8
4 4 4 5 8 7 8 7 7 7 7 6 6 5 7 10 9 8 7 7 8 8 8 8 8 8 7 7 8 6 7 6 8 6 9 9 9 8 10 9 10 10 10 9 9 9 8 8 8 8 8 8 7 8 7 6 5 3 2 4 6 7 5 2 4 5 6 6 4 4 2 5 7 7 8 8 7 8 7 7 8 8 8 8 8
3 3 3 5 6 7 8 8 7 7 8 7 7 6 6 9 8 9 9 8 8 8 8 8 7 6 6 7 6 3 4 3 3 4 7 6 8 9 8 8 9 9 9 8 8 8 8 7 7 7 6 7 7 7 6 5 4 4 4 5 6 4 3 4 4 5 6 6 5 4 2 2 5 7 6 6 6 6 7 7 6 7 7 7 6
4 4 4 5 5 6 6 8 8 7 8 5 6 6 6 7 6 5 5 6 6 7 6 4 5 3 4 4 3 3 4 3 3 5 5 6 7 10 9 9 9 7 7 7 7 7 7 6 5 5 5 6 8 5 4 3 3 2 3 5 4 4 1 2 4 5 5 4 5 4 2 5 7 7 7 5 4 6 5 6 5 6 5 5 3
5 5 5 5 4 5 6 6 6 6 7 5 5 6 7 5 6 5 5 6 5 5 4 5 4 4 3 3 5 4 4 5 3 3 5 8 7 9 9 9 8 7 7 6 5 6 6 4 5 4 4 4 1 2 4 4 3 4 5 3 2 4 2 2 3 4 4 4 4 4 1 2 4 6 5 5 5 5 4 4 5 5 4 2 3
7 6 5 4 6 4 5 5 6 5 7 6 6 6 6 6 6 6 6 6 6 4 4 5 5 6 5 5 5 4 4 5 7 10 8 6 5 8 9 9 9 9 9 6 7 6 6 5 3 2 4 3 3 4 5 5 4 3 3 4 4 2 0 3 3 3 4 4 3 5 2 6 7 6 5 5 4 5 4 3 3 3 4 4 4
7 7 5 5 6 5 4 5 6 5 5 7 7 6 7 6 6 6 6 6 6 6 5 5 4 6 6 6 3 4 5 5 5 5 4 6 4 4 5 5 4 4 7 4 5 4 4 2 1 1 3 4 5 1 2 4 4 4 3 5 2 2 0 2 3 3 3 3 4 5 5 5 4 3 2 3 5 5 3 3 3 2 3 3 4
6 7 6 6 5 7 5 4 5 4 5 5 7 7 8 5 6 6 6 6 7 6 5 6 4 4 5 4 4 4 1 6 4 4 4 5 6 5 5 5 5 5 5 5 5 5 4 5 3 3 4 6 2 1 1 1 1 5 3 1 2 1 0 1 4 3 2 4 4 4 4 4 6 4 2 4 3 4 3 3 3 3 3 2 3
7 7 7 6 6 6 7 6 6 5 5 4 5 6 7 6 6 6 6 5 7 6 5 6 5 4 4 4 3 5 3 4 4 5 5 5 7 6 6 6 6 6 6 5 4 5 4 5 5 4 6 0 0 1 2 3 2 2 1 2 1 1 2 0 4 4 3 4 4 6 5 5 7 5 5 4 3 5 5 4 4 4 3 3 3
7 8 8 7 7 6 6 6 6 6 5 4 4 5 4 4 5 7 7 6 6 6 5 6 5 6 5 4 3 5 5 3 6 5 6 4 6 5 6 6 6 6 6 5 4 4 3 4 4 4 2 0 0 0 1 1 3 3 3 0 1 1 2 1 3 4 4 5 5 5 4 5 6 9 7 6 8 6 4 7 7 6 5 6 5
7 7 7 7 9 8 5 6 6 6 6 6 4 4 5 4 4 4 5 6 6 5 5 5 5 6 6 4 2 3 6 4 5 5 5 3 4 4 4 4 5 4 5 4 5 4 4 3 4 3 2 2 3 3 2 3 3 3 4 2 2 2 2 2 1 3 3 5 5 5 7 6 5 6 8 7 9 8 7 9 9 6 7 7 6
9 8 7 6 8 8 7 7 6 7 6 5 5 5 5 5 4 4 4 4 5 5 4 4 4 4 4 5 3 3 3 6 5 6 5 4 3 4 2 2 4 3 4 3 4 5 4 4 4 3 4 4 4 5 5 4 4 3 4 3 3 3 3 3 3 3 4 3 5 6 10 8 7 6 8 8 10 10 6 11 12 8 9 10 11
9 8 8 7 7 9 7 6 6 5 6 6 5 5 5 5 4 4 4 4 4 4 4 4 4 4 5 5 5 4 3 3 5 6 5 5 4 4 3 2 2 3 5 4 3 5 5 5 5 5 5 5 4 4 5 4 4 4 4 3 2 3 3 3 4 3 3 4 4 5 8 11 8 7 7 6 8 10 11 11 12 10 11 11 11
6 7 7 7 8 11 10 7 5 4 5 5 5 5 5 5 5 5 5 4 4 4 5 5 5 5 4 5 6 4 4 4 2 4 5 5 4 4 4 3 4 3 3 4 3 4 3 3 4 4 4 4 4 4 4 4 3 4 4 3 3 3 3 3 3 3 4 3 4 4 6 7 10 9 8 8 7 9 12 14 14 12 13 12 12
4 6 6 7 7 9 11 10 8 5 5 5 5 4 4 5 5 5 5 5 5 4 5 6 5 5 4 5 5 5 3 4 4 3 4 5 4 4 4 4 4 3 3 4 3 3 1 1 1 1 1 1 1 3 1 3 3 3 3 4 4 4 4 3 3 3 3 4 4 2 5 6 6 10 12 10 8 7 10 13 13 15 13 13 13
6 4 6 8 6 4 8 9 10 10 9 6 4 5 4 4 5 5 5 6 5 5 4 5 5 6 5 4 5 5 4 3 4 3 3 5 3 4 4 4 4 2 2 2 3 3 3 2 3 2 3 3 4 3 2 3 3 3 3 3 4 4 4 5 3 3 2 3 4 4 3 6 6 6 7 10 11 9 9 13 14 15 15 16 16
6 5 7 8 7 6 6 7 10 10 10 8 7 7 6 5 5 6 6 5 5 6 5 4 5 6 6 6 4 5 6 4 4 3 2 3 3 3 4 5 4 3 3 3 4 3 4 5 4 4 4 5 4 3 3 4 3 4 5 3 4 3 3 3 3 3 1 1 1 2 2 2 4 6 6 6 9 12 12 12 14 15 16 17 19
8 7 6 7 9 7 8 6 9 9 10 10 8 6 7 7 6 6 5 5 6 6 6 5 5 6 6 6 5 4 5 7 4 3 2 1 2 4 4 5 5 6 6 4 4 5 5 5 5 5 5 4 4 5 4 5 5 5 4 5 4 4 5 2 2 2 1 2 3 3 3 3 3 3 5 6 6 9 15 14 12 13 14 18 20
7 7 7 6 7 8 9 8 10 10 9 10 8 5 5 4 6 7 7 5 6 5 6 6 6 5 5 6 6 6 5 5 8 5 4 3 3 4 3 2 4 6 6 5 5 4 3 4 4 5 5 5 5 5 5 5 5 4 4 4 3 2 3 3 2 2 1 3 5 5 5 4 5 5 5 5 5 6 12 16 16 17 16 15 18
8 8 8 9 9 8 8 8 7 9 8 10 9 7 6 4 4 6 7 7 6 6 6 5 6 6 5 6 6 6 7 6 6 7 7 7 6 6 5 5 2 3 3 4 5 4 4 5 5 5 6 5 5 4 5 4 4 5 4 3 1 1 2 2 3 2 3 4 5 6 6 5 5 6 6 6 6 5 5 11 17 18 18 17 17
9 9 8 8 7 6 7 8 7 8 7 8 9 8 6 5 5 5 6 7 6 6 6 6 6 6 6 5 6 7 7 7 6 6 6 6 7 7 6 5 5 5 5 5 5 5 6 6 6 5 4 5 5 4 4 4 3 1 1 1 1 3 3 3 3 4 5 6 7 7 4 7 6 6 6 7 7 7 7 5 5 7 11 18 17
9 10 9 8 9 7 7 8 7 8 7 6 8 7 7 7 8 6 4 4 5 7 6 6 5 6 6 6 6 7 8 8 8 8 8 7 7 7 6 5 6 6 6 6 6 6 6 5 5 4 4 4 4 5 2 3 2 1 3 4 4 4 5 5 5 6 6 7 8 6 7 6 6 7 7 8 7 8 8 7 6 6 6 9 16
7 9 8 8 9 9 9 10 9 7 8 8 8 8 8 7 4 6 6 5 5 4 5 5 5 5 5 6 7 8 7 8 8 7 7 7 6 5 5 5 7 7 7 7 6 6 6 5 5 4 5 5 4 3 2 3 1 3 4 5 7 6 9 7 8 8 8 8 7 7 7 7 8 8 9 7 7 8 7 7 8 7 7 7 9
7 8 9 10 9 8 9 8 9 8 8 8 7 7 6 7 7 6 5 6 6 7 6 5 5 5 4 4 5 6 7 8 8 8 7 7 6 6 6 7 7 6 7 7 7 6 6 6 5 4 4 7 5 4 3 4 2 4 5 5 5 5 9 9 9 10 9 8 8 8 8 9 10 9 7 7 7 7 8 8 8 8 8 9 9
9 9 8 8 8 8 8 7 8 9 7 7 7 8 6 6 7 6 8 5 4 6 6 6 7 6 7 6 5 4 6 7 8 9 8 8 8 7 6 6 6 5 5 5 5 6 6 7 7 6 4 2 3 2 6 7 5 3 1 2 5 5 2 1 5 9 8 10 8 8 9 9 11 9 7 6 7 8 8 8 9 9 10 10 10
6 6 7 9 8 8 7 8 8 8 8 7 7 6 6 5 5 5 6 5 3 1 1 4 2 1 1 0 1 2 4 5 7 8 7 6 6 6 4 4 5 3 4 5 6 7 5 6 6 6 5 4 3 5 5 6 5 4 2 5 2 1 9 5 3 5 9 11 9 10 7 8 9 9 6 8 9 8 8 7 9 10 11 11 10
6 8 8 9 7 9 8 8 7 8 7 7 7 6 6 5 4 3 3 3 3 2 1 1 3 3 2 3 4 3 4 3 3 6 7 8 7 6 6 6 6 5 4 4 4 5 6 6 7 6 7 7 7 5 4 6 7 7 6 1 1 2 6 5 4 6 5 4 6 8 8 8 9 9 8 9 7 8 8 9 10 10 11 11 10
7 6 6 6 5 6 7 6 6 6 7 7 7 6 7 7 7 7 5 3 3 3 5 4 2 3 4 3 3 3 4 4 4 3 5 5 6 7 8 7 6 6 6 6 6 5 5 6 6 8 7 7 7 6 5 2 6 7 8 8 7 7 4 1 3 5 1 4 5 6 8 8 8 8 7 7 8 9 8 9 9 11 11 11 10
6 5 5 5 5 5 5 6 6 5 5 6 7 6 6 6 6 6 6 6 6 3 3 4 3 3 3 4 5 5 5 5 4 3 3 4 5 5 6 6 6 5 6 7 7 7 6 7 6 6 7 7 6 7 8 5 1 4 6 9 9 8 5 4 8 5 10 2 5 3 5 6 7 8 8 8 9 8 8 9 10 11 10 10 10
5 5 5 5 5 5 6 6 5 6 5 5 6 6 7 6 6 6 6 6 6 4 5 3 3 1 1 1 1 1 0 1 2 1 1 1 2 4 4 4 5 5 5 5 6 6 5 4 6 8 7 6 8 9 7 5 6 4 7 9 8 9 8 9 9 8 9 11 11 4 6 5 6 8 9 9 9 10 10 9 10 10 9 10 10
5 6 6 5 5 5 6 5 5 6 5 6 7 6 6 6 7 6 5 4 5 3 3 4 5 4 4 0 1 2 2 2 2 2 2 2 2 1 1 1 2 2 2 3 4 5 6 6 6 6 8 7 7 7 6 6 6 7 4 5 6 7 6 6 7 5 7 9 14 9 12 4 7 8 8 8 9 9 10 11 11 11 10 10 10
4 4 4 4 5 5 6 6 6 5 6 6 7 6 5 6 6 5 6 4 3 2 2 3 4 4 3 2 2 2 2 2 2 3 4 2 1 0 1 2 2 2 1 2 2 3 5 6 6 6 7 8 7 7 8 7 6 6 6 5 5 3 4 5 6 6 8 10 14 13 11 12 12 8 7 6 8 9 10 11 11 9 10 9 9
3 5 5 5 5 5 6 6 6 6 6 6 6 6 5 5 5 5 6 5 5 4 2 1 1 2 3 3 3 2 2 3 1 0 0 2 4 5 4 3 4 3 2 2 3 2 1 2 3 3 4 5 5 6 6 7 6 6 6 6 7 6 7 7 5 5 7 6 7 11 11 10 9 14 8 8 8 10 10 10 10 10 10 10 10
Wind_Direction
126 121 118 126 128 114 108 102 98 92 90 87 84 83 83 82 83 78 65 63 67 78 82 70 71 68 64 65 68 69 67 67 67 65 67 67 65 62 69 70 68 66 64 63 64 65 65 66 65 66 64 65 65 64 64 63 61 62 64 67 67 68 70 70 66 62 62 65 67 69 71 74 75 75 73 70 68 65 66 66 64 64 62 68 69
129 119 121 122 124 116 113 106 101 95 89 88 88 88 85 81 80 74 62 76 70 69 68 77 71 69 67 68 71 67 66 66 68 72 69 68 66 65 67 69 64 66 68 68 65 66 66 65 68 66 64 64 65 66 67 63 62 62 62 61 61 60 61 66 76 76 69 67 65 63 65 69 73 76 75 73 70 68 68 72 69 66 70 73 71
118 120 115 121 118 117 113 109 105 98 91 87 86 86 86 81 84 86 84 83 77 69 77 78 72 72 73 71 68 69 72 73 75 77 76 73 72 69 68 72 69 66 65 66 67 67 68 68 67 66 66 65 65 68 68 64 62 61 61 59 57 56 55 54 55 70 82 74 67 62 58 58 65 72 76 75 75 72 70 76 75 70 75 75 75
122 116 114 112 117 121 114 108 102 100 97 94 93 93 89 84 80 87 90 88 84 84 76 73 75 81 79 76 73 73 74 78 77 78 75 74 74 74 69 66 72 74 71 70 70 68 68 69 68 69 68 68 70 68 64 63 62 60 58 56 54 53 52 52 51 48 53 76 69 65 62 55 60 73 78 78 78 76 75 74 74 78 75 77 75
120 119 122 121 121 118 112 110 110 105 102 99 96 92 87 82 95 101 95 95 93 95 92 88 86 83 82 78 78 80 77 75 77 77 81 78 76 75 74 75 66 67 73 72 73 72 69 71 72 70 71 71 70 72 70 65 62 57 54 50 48 43 37 37 40 61 63 67 70 68 61 55 61 68 75 75 74 74 73 73 73 71 72 72 72
121 128 135 130 121 118 118 116 113 111 107 102 97 95 97 96 88 77 84 96 96 90 91 92 91 87 84 81 79 80 83 79 79 82 80 77 75 73 72 73 74 70 69 68 69 71 73 71 71 72 71 71 71 72 73 70 63 57 51 46 42 39 36 34 44 60 62 65 63 63 62 56 55 65 75 79 81 78 78 76 76 77 73 73 73
128 138 135 124 126 126 123 119 117 115 110 107 103 101 103 102 98 92 88 86 81 85 92 95 93 91 88 87 86 80 77 77 82 80 78 76 76 74 74 75 74 70 71 73 71 70 70 71 71 70 72 73 72 73 74 73 65 55 50 46 42 36 33 38 59 70 68 63 68 68 62 57 56 29 73 79 75 77 76 75 74 73 74 73 72
133 136 124 126 125 133 124 120 118 116 115 108 107 108 105 95 88 87 89 77 83 87 100 94 91 94 92 91 88 85 80 85 83 81 81 81 78 79 79 75 73 73 75 74 74 70 70 71 70 71 73 75 74 75 77 80 63 54 50 44 38 29 28 24 66 66 67 71 70 70 67 63 65 95 72 75 79 73 73 75 75 75 75 76 76
138 129 126 120 130 132 124 123 125 122 118 115 112 106 103 99 92 88 93 99 88 97 100 104 100 97 94 89 84 84 86 85 86 86 82 74 74 75 74 73 74 75 74 77 78 76 73 74 77 75 74 74 77 77 79 80 59 50 47 42 33 24 14 48 80 72 68 66 67 72 75 74 71 65 72 71 71 72 69 67 69 73 76 76 76
128 115 116 120 135 131 130 130 129 124 120 119 114 110 107 102 96 95 94 97 90 87 100 101 97 94 92 90 88 89 87 84 91 90 88 90 85 77 75 75 75 76 78 75 73 78 79 77 76 76 76 75 75 75 75 72 55 49 45 38 29 19 17 39 69 77 85 78 74 74 71 71 66 67 76 77 78 80 81 79 80 74 76 83 80
123 114 115 124 135 133 133 131 127 125 121 120 119 115 110 109 105 97 98 100 97 98 98 98 95 93 91 94 95 92 89 89 87 85 83 84 84 84 80 77 77 76 74 76 77 79 82 80 77 77 75 75 73 74 73 70 55 49 44 36 28 20 16 53 52 51 51 62 72 83 88 81 83 77 75 77 76 73 76 86 81 79 75 71 72
120 114 111 121 135 133 128 127 127 126 127 124 121 120 117 113 108 104 104 103 99 103 106 99 96 95 95 98 99 96 89 89 85 79 84 83 82 80 81 82 78 71 69 73 76 80 83 82 79 79 79 78 76 74 76 73 57 49 44 34 26 23 41 57 58 54 61 66 63 57 49 48 45 64 69 72 79 81 74 72 76 78 73 78 76
103 99 109 121 130 125 123 125 127 131 131 129 125 124 122 117 107 103 97 92 101 106 101 98 94 94 94 93 93 95 97 96 99 90 84 94 91 84 85 85 79 75 74 74 78 80 81 82 80 78 78 78 78 78 78 73 56 48 38 31 25 23 42 58 55 52 52 60 69 67 60 52 51 60 60 64 65 62 64 69 68 69 80 70 71
107 115 123 128 124 125 121 122 130 137 134 132 130 127 126 119 112 105 99 94 93 91 100 103 101 97 97 97 99 96 99 98 95 98 95 92 91 95 93 84 80 78 73 73 73 75 80 82 81 79 77 76 78 80 81 69 59 48 39 32 27 25 43 63 56 50 54 57 55 54 57 60 74 63 62 65 70 71 68 58 56 61 65 78 78
119 129 126 120 127 126 122 124 130 133 132 131 132 131 129 125 119 112 108 101 96 100 105 111 110 107 105 102 103 105 109 117 110 85 86 99 98 95 87 83 83 82 80 77 74 73 76 77 78 78 78 78 79 82 81 68 58 47 40 31 22 34 38 71 69 72 72 74 70 63 49 24 60 68 66 65 67 74 74 70 72 72 77 77 70
118 120 121 133 135 126 132 125 124 128 130 129 132 130 130 129 125 122 118 110 104 100 101 109 114 112 107 108 114 118 99 76 102 104 73 82 89 83 85 89 87 84 84 82 79 76 78 79 80 80 83 83 82 82 76 67 57 47 34 30 28 22 21 35 70 47 51 89 86 75 60 45 65 68 68 70 71 74 78 80 80 78 75 81 89
113 125 130 139 135 145 140 146 134 131 129 131 130 131 129 129 131 129 124 118 115 108 102 103 111 114 114 114 112 82 70 66 70 76 66 59 63 87 87 90 89 86 84 84 82 82 81 84 84 84 85 86 87 84 74 66 55 39 31 29 20 13 22 54 73 65 69 64 66 67 66 57 74 74 72 71 73 74 75 79 77 79 84 83 78
111 129 135 141 142 151 147 152 141 145 135 134 138 134 131 130 126 123 121 117 118 114 107 100 89 84 84 99 97 83 76 68 67 73 74 70 66 78 96 97 93 91 88 86 85 85 87 86 88 91 90 88 89 86 79 73 60 44 30 17 10 7 8 21 78 66 64 76 73 73 73 90 86 81 77 76 81 78 82 82 83 83 82 82 85
125 157 147 152 152 153 154 150 160 159 149 151 148 142 136 128 123 117 112 110 102 98 97 99 97 90 89 96 94 89 86 81 73 73 77 68 78 77 82 91 98 94 94 92 90 91 89 87 88 92 96 100 96 83 79 74 69 45 31 7 4 355 341 7 74 73 80 80 91 98 132 128 92 77 76 83 75 84 92 93 94 95 92 95 92
133 173 181 168 154 157 156 151 167 170 155 162 153 147 142 134 128 121 114 110 107 104 108 105 102 100 104 108 109 104 100 96 96 74 70 75 89 95 95 100 104 102 101 101 98 100 98 97 97 102 100 106 98 82 75 70 59 45 21 351 358 337 325 21 70 98 95 99 97 101 89 329 71 90 91 82 90 103 97 102 97 88 85 88 100
140 211 213 170 158 163 155 157 173 173 166 165 150 148 144 133 125 121 119 115 112 112 109 108 105 111 113 127 131 147 132 124 126 103 84 84 93 94 100 101 104 103 100 104 108 103 104 108 104 99 113 110 96 83 62 59 45 19 344 340 340 318 311 21 64 84 101 110 103 91 9 1 94 82 86 105 104 86 100 105 113 109 114 118 134
161 197 234 177 177 164 162 166 171 172 166 145 145 141 146 148 133 133 126 121 118 124 131 137 136 125 132 157 187 169 149 150 162 125 108 103 94 100 101 100 98 98 105 110 112 113 109 108 113 127 134 157 139 120 116 97 51 325 304 317 304 286 348 37 67 71 89 105 110 132 218 148 133 122 113 99 85 92 110 107 107 117 103 101 101
167 195 219 190 187 168 171 165 171 162 148 141 142 136 154 163 151 155 139 143 145 155 167 156 175 147 172 201 234 178 163 164 149 112 113 98 105 109 108 109 105 96 89 88 110 122 120 115 122 141 197 198 233 164 152 151 175 240 263 276 261 259 68 58 88 85 101 115 128 123 322 181 110 84 79 73 112 109 115 123 116 121 143 112 90
170 191 197 192 181 184 181 164 169 163 149 148 142 143 163 178 155 164 150 157 158 193 190 168 186 155 175 214 229 186 125 100 106 110 114 108 100 105 115 114 116 115 112 101 94 108 123 132 143 232 278 267 253 216 175 162 186 210 244 245 251 142 84 102 100 111 121 131 144 158 209 160 145 146 135 141 79 124 144 124 133 137 118 147 154
169 179 178 198 183 187 180 166 165 164 164 149 154 158 169 182 154 170 154 162 162 190 202 171 191 157 179 217 216 129 120 132 125 140 150 133 134 131 136 145 148 152 148 149 146 155 149 154 160 229 262 251 240 301 179 164 181 204 221 241 203 98 97 130 118 107 120 116 150 159 180 237 167 142 176 110 147 108 167 161 159 176 163 190 150
163 167 180 190 193 182 177 171 163 167 166 158 163 157 164 179 155 169 157 171 163 189 189 169 178 153 178 223 129 119 164 138 148 160 196 159 157 166 179 182 172 181 192 182 169 167 192 176 166 201 241 241 234 266 328 338 263 194 223 133 61 35 338 138 118 123 128 127 154 188 172 220 183 200 193 169 158 158 183 172 185 190 211 199 191
176 177 175 180 191 184 175 172 167 169 171 179 169 148 164 176 159 161 162 185 163 174 192 163 169 163 172 236 158 134 201 152 161 171 210 186 171 174 186 201 184 181 186 212 179 171 179 156 173 204 240 228 35 14 338 333 344 318 334 131 113 215 252 185 135 156 152 145 171 198 197 222 215 219 183 218 158 185 181 207 194 209 202 233 214
166 180 172 175 180 189 178 164 168 169 175 186 170 149 161 172 163 151 165 179 163 174 177 164 162 165 172 222 201 151 182 180 171 171 209 201 173 184 185 197 185 162 183 198 150 145 175 174 178 204 223 71 170 280 287 283 306 316 326 165 148 231 233 226 166 158 161 146 168 201 210 220 242 314 240 205 195 221 229 184 219 224 198 207 231
170 179 176 176 171 182 185 171 169 174 173 176 180 169 167 179 160 147 169 156 167 180 174 162 165 157 170 208 225 174 172 197 167 178 190 210 186 192 190 188 158 177 165 195 145 161 193 181 178 187 176 211 196 200 239 237 235 272 273 264 199 234 262 242 174 160 164 157 172 190 206 218 242 277 253 222 232 242 237 189 211 229 226 216 220
180 179 177 181 161 172 183 179 177 176 172 170 185 168 170 179 172 161 177 155 168 173 170 161 162 154 162 192 231 221 198 188 174 172 173 201 194 187 182 196 174 189 162 190 168 169 195 187 179 186 194 208 204 196 197 224 213 235 246 247 226 205 231 231 208 177 178 181 172 189 205 216 224 235 237 246 254 274 261 195 221 239 246 226 228
172 178 174 176 162 165 180 180 183 173 169 173 175 177 163 172 180 167 163 168 177 170 166 161 167 171 171 172 212 237 249 231 176 173 175 182 185 164 192 211 208 201 169 189 183 180 191 185 184 192 199 203 212 207 187 208 218 221 250 249 250 217 231 237 195 183 185 196 202 178 202 209 218 243 242 239 257 256 265 227 243 222 228 243 247
172 181 170 170 167 170 173 182 185 181 171 169 165 178 167 173 179 171 172 176 180 184 171 172 183 182 181 170 186 213 234 264 241 180 174 168 171 178 184 193 221 219 175 179 196 191 188 197 185 190 200 198 213 218 195 192 238 220 215 231 252 279 259 246 198 199 201 209 222 199 189 203 212 222 243 243 241 251 256 272 268 247 234 248 249
194 176 174 167 180 167 169 177 182 186 184 182 167 180 178 173 173 178 175 177 186 190 183 183 180 187 188 170 177 190 212 243 273 224 174 169 173 181 184 193 205 208 189 178 186 169 174 181 216 154 284 307 287 279 218 189 228 259 216 217 202 230 265 273 244 199 203 215 230 216 181 201 209 217 224 230 233 242 254 256 255 265 262 253 251
187 183 171 177 179 174 166 170 179 181 183 189 176 180 196 184 172 174 180 172 180 190 204 187 181 184 183 189 174 180 186 231 249 283 208 169 177 183 180 191 199 186 169 173 174 152 170 187 198 157 234 242 244 248 245 245 250 261 266 229 185 209 234 257 252 231 217 217 225 234 200 201 208 215 223 228 228 229 240 244 243 250 254 251 258
173 186 184 179 176 178 173 173 175 177 173 186 190 189 190 187 180 178 179 170 179 190 201 205 187 185 176 187 192 178 178 197 253 262 270 194 185 208 184 184 178 174 188 183 164 173 183 199 183 184 208 221 232 237 226 241 239 236 243 227 206 224 238 239 274 263 235 279 323 272 257 208 220 224 223 226 232 231 231 238 239 240 247 248 253
179 185 184 176 181 180 176 178 169 176 175 183 192 194 186 188 175 176 183 180 182 189 193 205 205 184 176 183 187 191 189 180 211 258 276 273 205 226 209 193 193 185 187 190 184 197 199 202 202 188 199 219 210 234 220 228 229 233 231 215 216 206 215 221 242 265 293 297 276 262 249 239 230 230 241 233 226 228 228 231 235 240 243 243 245
178 177 182 185 185 180 171 176 174 180 173 178 188 194 203 190 173 175 182 178 187 194 198 193 201 198 185 182 185 188 197 196 186 211 236 249 256 245 241 212 204 188 179 187 191 205 207 211 223 207 187 210 206 222 223 221 227 228 231 219 204 169 191 202 221 227 235 236 248 252 254 248 244 245 237 244 248 238 227 226 231 235 236 243 248
183 181 182 184 189 179 173 177 173 177 172 175 182 189 200 202 211 182 176 179 185 191 198 195 200 204 195 187 175 184 192 201 200 193 197 211 217 218 227 244 188 166 177 185 205 206 217 219 232 220 201 203 219 209 222 226 220 223 216 180 165 165 252 271 271 278 243 240 238 241 241 248 244 246 249 249 248 248 250 233 231 232 235 237 240
182 184 180 180 185 178 167 173 171 173 174 167 173 180 183 197 214 201 181 188 183 190 192 199 200 199 204 189 174 181 190 197 202 201 204 209 212 212 211 205 207 202 197 200 208 210 213 218 218 231 211 197 201 216 220 208 207 143 143 255 246 248 253 252 256 254 245 238 237 239 236 236 236 240 242 241 243 246 247 251 234 236 240 239 239
175 182 181 175 179 177 163 169 177 171 171 170 167 175 180 190 198 187 178 185 188 189 198 204 200 198 199 196 183 178 188 198 203 205 210 212 212 209 203 201 201 200 202 205 208 205 209 215 235 211 218 234 220 222 197 104 87 174 255 274 251 248 246 235 238 235 240 241 243 244 243 242 234 242 239 237 238 240 241 245 248 246 241 240 238
173 176 180 179 179 180 163 174 181 174 170 173 172 173 178 181 179 187 194 190 197 194 198 200 202 203 201 197 191 185 182 191 203 208 212 209 209 205 210 211 208 206 203 208 204 202 194 194 210 204 216 238 247 190 132 114 109 306 253 262 274 245 241 229 234 237 234 240 239 238 238 239 239 239 239 238 240 239 242 242 245 247 250 251 246
190 178 185 187 183 180 177 172 171 182 181 178 172 175 180 183 178 189 183 188 191 194 203 202 203 214 219 195 182 179 183 191 199 206 211 215 216 211 213 218 213 211 215 206 196 194 191 195 191 219 212 222 241 181 175 118 208 230 283 295 276 259 234 222 230 242 237 239 236 236 238 237 242 239 240 235 240 238 237 238 242 244 246 247 247
184 185 186 181 183 182 181 174 172 178 186 177 169 179 176 176 173 181 178 182 183 178 183 189 194 202 212 213 198 183 182 188 193 199 206 215 216 211 219 217 209 210 230 239 215 208 200 198 189 196 212 243 250 208 189 186 214 151 152 2 288 318 304 269 251 247 235 239 231 234 236 239 244 243 238 235 238 239 237 235 237 239 242 242 243
175 186 183 183 184 185 180 176 175 175 181 184 176 174 169 168 163 158 172 153 176 137 155 177 176 157 253 143 167 187 206 206 186 191 207 210 209 214 211 212 227 222 212 219 211 207 177 175 184 193 175 218 218 240 195 201 190 119 300 213 266 30 299 275 258 250 217 230 223 232 232 238 242 246 235 235 239 238 240 235 237 238 240 241 240
186 186 186 185 185 185 183 177 172 173 174 176 173 161 147 143 138 100 73 87 69 75 48 293 189 200 232 213 217 213 237 238 200 193 194 207 213 211 210 214 219 225 217 219 214 211 201 193 190 190 190 205 228 224 226 191 203 194 187 112 311 275 232 282 353 272 200 235 237 231 234 232 235 237 231 240 242 241 242 240 239 240 241 239 239
199 197 184 181 164 172 170 167 164 163 168 172 169 154 157 154 152 158 154 167 182 167 196 205 209 189 202 207 225 218 218 232 240 203 188 207 204 213 214 210 216 222 213 219 221 214 210 203 200 202 211 209 218 226 235 227 216 210 219 225 220 254 282 246 2 299 347 213 236 218 231 228 235 242 235 242 237 241 236 242 241 243 241 239 237
201 177 161 167 156 162 162 162 162 163 159 160 164 149 150 157 165 170 171 175 180 209 179 183 180 211 194 201 207 216 216 209 218 230 209 189 207 215 208 208 213 215 209 213 220 220 213 205 196 195 206 209 210 236 236 217 183 257 233 239 251 261 261 293 267 308 295 251 241 256 252 231 232 236 240 238 238 239 240 236 242 243 243 242 240
177 160 160 162 157 161 156 158 154 155 158 152 156 157 156 164 166 171 168 170 169 182 180 185 167 168 266 260 186 139 87 155 186 216 228 286 241 218 208 209 216 225 209 211 218 220 219 211 198 201 204 204 204 218 238 214 200 234 201 232 242 252 260 260 262 264 282 294 285 266 251 244 222 238 234 236 233 233 238 236 239 239 241 240 239
154 162 163 166 159 153 148 149 150 148 160 154 154 162 160 168 166 161 158 159 149 171 156 159 174 190 200 324 44 23 16 27 56 54 27 13 30 28 175 192 200 215 203 226 225 220 219 222 215 205 203 205 202 215 225 229 211 236 171 230 234 240 247 245 266 262 261 287 280 273 278 242 241 251 249 234 237 234 235 239 235 234 234 238 235
138 135 140 144 151 150 151 152 158 148 157 154 152 161 163 158 159 157 147 152 137 155 100 64 55 44 61 39 35 18 356 353 11 1 342 343 337 336 322 306 288 286 320 303 304 250 225 219 211 203 201 209 206 209 219 227 227 233 222 209 205 235 250 262 238 236 246 234 263 280 277 287 284 262 249 248 232 235 237 239 242 240 238 239 236
123 134 149 159 156 148 152 150 158 141 149 152 148 162 157 146 146 145 146 153 166 148 127 94 70 38 30 5 6 352 334 286 194 117 62 358 341 345 346 353 360 350 314 294 278 276 268 260 265 262 238 220 215 219 230 239 239 243 238 223 230 212 228 240 240 220 230 258 280 273 279 268 264 286 258 243 238 236 238 239 241 240 239 239 237